, WY

(GMT )
South Pass

Weather History for KFWZ - October, 2013

Change the Weather History Date:

Monday, October 28, 2013

  Actual Average Record
Temperature  
Mean Temperature 28 °F -  
Max Temperature 37 °F - - ()
Min Temperature 19 °F - - ()
Degree Days  
Heating Degree Days 37    
Moisture  
Dew Point 25 °F    
Average Humidity 89    
Maximum Humidity 100    
Minimum Humidity 56    
Precipitation  
Precipitation 0.00 in - - ()
Sea Level Pressure  
Sea Level Pressure 29.83 in    
Wind  
Wind Speed 18 mph (North)    
Max Wind Speed 31 mph    
Max Gust Speed 39 mph    
Visibility 5 miles    
Events Fog , Snow    
Averages and records for this station are not official NWS values.
T = Trace of Precipitation, MM = Missing Value Source: NWS Daily Summary

Daily Weather History Graph

Daily Weather History Graph

Search for Another Location

Airport or City:

Trip Planner

Search our weather history database for the weather conditions in past years. The results will help you decide how hot, cold, wet, or windy it might be!

Date:

Astronomy

Oct. 28, 2013 Rise Set
Actual Time 7:44 AM MDT 6:12 PM MDT
Civil Twilight 7:15 AM MDT 6:42 PM MDT
Nautical Twilight 6:41 AM MDT 7:15 PM MDT
Astronomical Twilight 6:09 AM MDT 7:47 PM MDT
Moon 1:32 AM MDT (10/28) 3:03 PM MDT (10/28)
Length of Visible Light 11h 26m
Length of Day
10h 28m
Waning Crescent, 33% of the Moon is Illuminated
Oct 28
Waning Crescent
Nov 3
New
Nov 9
First Quarter
Nov 17
Full
Nov 25
Last Quarter

Hourly Weather History & Observations

Time (MDT) Temp. Windchill Dew Point Humidity Pressure Visibility Wind Dir Wind Speed Gust Speed Precip Events Conditions
12:15 AM 37.4 °F 30.8 °F 23.0 °F 56% 29.88 in 10.0 mi NNE 9.2 mph - N/A   Overcast
12:35 AM 37.4 °F 28.2 °F 23.0 °F 56% 29.86 in 10.0 mi NW 16.1 mph - N/A   Overcast
12:55 AM 37.4 °F 28.5 °F 26.6 °F 65% 29.85 in 10.0 mi NNW 15.0 mph - N/A   Overcast
1:15 AM 35.6 °F 26.2 °F 26.6 °F 70% 29.85 in 10.0 mi NNW 15.0 mph - N/A   Overcast
1:35 AM 35.6 °F 27.1 °F 24.8 °F 65% 29.85 in 10.0 mi North 12.7 mph - N/A   Overcast
1:55 AM 35.6 °F 27.5 °F 24.8 °F 65% 29.85 in 10.0 mi North 11.5 mph - N/A   Overcast
2:15 AM 35.6 °F 27.5 °F 26.6 °F 70% 29.85 in 10.0 mi North 11.5 mph - N/A   Mostly Cloudy
2:35 AM 35.6 °F 26.6 °F 26.6 °F 70% 29.85 in 10.0 mi North 13.8 mph 17.3 mph N/A   Overcast
2:55 AM 33.8 °F 23.2 °F 26.6 °F 75% 29.85 in 10.0 mi North 17.3 mph - N/A   Overcast
3:15 AM 33.8 °F 22.2 °F 26.6 °F 75% 29.85 in 10.0 mi NNW 20.7 mph - N/A   Overcast
3:35 AM 33.8 °F 22.2 °F 26.6 °F 75% 29.85 in 10.0 mi NNW 20.7 mph 27.6 mph N/A   Overcast
3:55 AM 32.0 °F 20.5 °F 26.6 °F 80% 29.83 in 10.0 mi North 18.4 mph - N/A   Overcast
4:15 AM 32.0 °F 20.5 °F 26.6 °F 80% 29.84 in 10.0 mi NNW 18.4 mph 26.5 mph N/A   Overcast
4:35 AM 32.0 °F 21.2 °F 28.4 °F 87% 29.85 in 10.0 mi North 16.1 mph 20.7 mph N/A   Overcast
4:55 AM 32.0 °F 22.1 °F 28.4 °F 87% 29.85 in 5.0 mi North 13.8 mph - N/A Snow Light Snow
5:15 AM 32.0 °F 21.2 °F 30.2 °F 93% 29.83 in 2.5 mi North 16.1 mph 20.7 mph N/A Snow Light Snow
5:35 AM 32.0 °F 21.6 °F 30.2 °F 93% 29.83 in 10.0 mi North 15.0 mph - N/A   Overcast
5:55 AM 32.0 °F 19.2 °F 30.2 °F 93% 29.82 in 10.0 mi North 23.0 mph 28.8 mph N/A   Overcast
6:15 AM 32.0 °F 20.5 °F 30.2 °F 93% 29.83 in 10.0 mi NNW 18.4 mph 23.0 mph N/A   Mostly Cloudy
6:35 AM 32.0 °F 20.5 °F 30.2 °F 93% 29.83 in 10.0 mi North 18.4 mph - N/A   Overcast
6:55 AM 32.0 °F 19.8 °F 28.4 °F 87% 29.83 in 7.0 mi NNW 20.7 mph - N/A   Overcast
7:15 AM 30.2 °F 19.3 °F 30.2 °F 100% 29.83 in 0.5 mi North 15.0 mph - N/A Snow Snow
7:35 AM 30.2 °F 18.9 °F 30.2 °F 100% 29.83 in 1.8 mi NNW 16.1 mph 19.6 mph N/A Snow Light Snow
7:55 AM 30.2 °F 19.8 °F 30.2 °F 100% 29.84 in 0.5 mi North 13.8 mph 19.6 mph N/A Snow Snow
8:15 AM 30.2 °F 18.9 °F 30.2 °F 100% 29.83 in 0.8 mi North 16.1 mph - N/A Snow Snow
8:35 AM 30.2 °F 20.8 °F 28.4 °F 93% 29.83 in 0.5 mi North 11.5 mph 20.7 mph N/A Snow Light Snow
8:55 AM 30.2 °F 18.1 °F 28.4 °F 93% 29.83 in 5.0 mi North 18.4 mph - N/A   Overcast
9:15 AM 30.2 °F 18.1 °F 26.6 °F 86% 29.83 in 10.0 mi North 18.4 mph - N/A   Overcast
9:35 AM 28.4 °F 14.4 °F 26.6 °F 93% 29.84 in 0.8 mi North 23.0 mph 27.6 mph N/A Snow Light Snow
9:55 AM 28.4 °F 15.1 °F 26.6 °F 93% 29.84 in 0.2 mi North 20.7 mph 27.6 mph N/A Snow Snow
10:15 AM 28.4 °F 15.8 °F 26.6 °F 93% 29.84 in 1.2 mi North 18.4 mph - N/A Snow Light Snow
10:35 AM 28.4 °F 13.8 °F 26.6 °F 93% 29.83 in 3.0 mi NNW 25.3 mph 29.9 mph N/A Snow Light Snow
10:55 AM 28.4 °F 14.4 °F 26.6 °F 93% - 5.0 mi NNW 23.0 mph 29.9 mph N/A   Overcast
11:15 AM 28.4 °F 15.8 °F 24.8 °F 86% - 10.0 mi North 18.4 mph - N/A   Overcast
11:35 AM 28.4 °F 17.0 °F 26.6 °F 93% - 10.0 mi North 15.0 mph 23.0 mph N/A   Overcast
11:55 AM 28.4 °F 14.7 °F 24.8 °F 86% - 10.0 mi North 21.9 mph 25.3 mph N/A   Overcast
12:15 PM 30.2 °F 18.5 °F 26.6 °F 86% 29.82 in 10.0 mi NNW 17.3 mph 25.3 mph N/A   Overcast
12:35 PM 30.2 °F 18.5 °F 26.6 °F 86% - 10.0 mi North 17.3 mph 26.5 mph N/A   Mostly Cloudy
12:55 PM 30.2 °F 16.8 °F 26.6 °F 86% 29.79 in 10.0 mi North 23.0 mph 29.9 mph N/A   Mostly Cloudy
1:15 PM 30.2 °F 16.8 °F 26.6 °F 86% 29.79 in 10.0 mi North 23.0 mph 31.1 mph N/A   Mostly Cloudy
1:35 PM 28.4 °F 13.5 °F 24.8 °F 86% 29.78 in 10.0 mi NNW 26.5 mph 32.2 mph N/A   Scattered Clouds
1:55 PM 26.6 °F 11.4 °F 23.0 °F 86% 29.78 in 7.0 mi North 25.3 mph 35.7 mph N/A   Mostly Cloudy
2:15 PM 26.6 °F 10.3 °F 23.0 °F 86% 29.77 in 1.0 mi North 29.9 mph 35.7 mph N/A   Overcast
2:35 PM 26.6 °F 12.0 °F 24.8 °F 93% 29.77 in 7.0 mi North 23.0 mph 32.2 mph N/A   Overcast
2:55 PM 26.6 °F 11.1 °F 23.0 °F 86% - 10.0 mi North 26.5 mph 33.4 mph N/A   Overcast
3:15 PM 26.6 °F 11.7 °F 24.8 °F 93% - 10.0 mi North 24.2 mph 35.7 mph N/A   Overcast
3:35 PM 24.8 °F 7.9 °F 23.0 °F 93% - 0.2 mi North 29.9 mph 34.5 mph N/A Snow Light Snow
3:55 PM 23.0 °F 5.7 °F 23.0 °F 100% - 0.2 mi North 28.8 mph 33.4 mph N/A Snow Heavy Snow
4:15 PM 23.0 °F 6.6 °F 23.0 °F 100% - 0.2 mi North 25.3 mph 32.2 mph N/A Fog Light Freezing Fog
4:35 PM 23.0 °F 6.9 °F 23.0 °F 100% - 0.8 mi North 24.2 mph 33.4 mph N/A   Overcast
4:55 PM 23.0 °F 6.0 °F 23.0 °F 100% - 1.2 mi North 27.6 mph 35.7 mph N/A   Overcast
5:15 PM 23.0 °F 5.4 °F 21.2 °F 93% - 1.0 mi North 29.9 mph 36.8 mph N/A   Overcast
5:35 PM 21.2 °F 3.3 °F 21.2 °F 100% - 1.0 mi North 28.8 mph 35.7 mph N/A   Overcast
5:55 PM 21.2 °F 3.0 °F 21.2 °F 100% - 0.8 mi NNW 29.9 mph 38.0 mph N/A   Overcast
6:15 PM 21.2 °F 2.7 °F 21.2 °F 100% - 0.2 mi North 31.1 mph 39.1 mph N/A Snow Light Snow
6:35 PM 21.2 °F 5.2 °F 21.2 °F 100% - 0.8 mi North 21.9 mph 35.7 mph N/A   Overcast
6:55 PM 21.2 °F 3.9 °F 21.2 °F 100% - 2.5 mi North 26.5 mph 38.0 mph N/A   Overcast
7:15 PM 21.2 °F 4.9 °F 21.2 °F 100% - 3.0 mi North 23.0 mph 34.5 mph N/A   Overcast
7:35 PM 21.2 °F 4.2 °F 21.2 °F 100% - 1.8 mi North 25.3 mph 34.5 mph N/A   Overcast
7:55 PM 21.2 °F 4.2 °F 19.4 °F 93% - 1.2 mi North 25.3 mph 32.2 mph N/A   Overcast
8:15 PM 21.2 °F 5.6 °F 19.4 °F 93% - 0.8 mi North 20.7 mph 38.0 mph N/A Snow Light Snow
8:35 PM 21.2 °F 4.5 °F 19.4 °F 93% - 0.8 mi North 24.2 mph 31.1 mph N/A Snow Light Snow
8:55 PM 21.2 °F 5.2 °F 19.4 °F 93% - 0.8 mi North 21.9 mph 29.9 mph N/A Snow Light Snow
9:15 PM 21.2 °F 5.6 °F 19.4 °F 93% - 2.0 mi North 20.7 mph 29.9 mph N/A   Overcast
9:35 PM 21.2 °F 6.0 °F 19.4 °F 93% - 0.8 mi North 19.6 mph 26.5 mph N/A Snow Light Snow
9:55 PM 21.2 °F 4.9 °F 19.4 °F 93% - 0.5 mi North 23.0 mph 33.4 mph N/A Snow Snow
10:15 PM 19.4 °F 2.5 °F 19.4 °F 100% - 1.2 mi North 23.0 mph 33.4 mph N/A Snow Light Snow
10:35 PM 19.4 °F 1.8 °F 19.4 °F 100% - 1.2 mi North 25.3 mph 32.2 mph N/A   Overcast
10:55 PM 19.4 °F 3.2 °F 19.4 °F 100% - 2.0 mi North 20.7 mph 31.1 mph N/A   Overcast
11:15 PM 19.4 °F 1.1 °F 19.4 °F 100% - 1.2 mi North 27.6 mph 34.5 mph N/A   Overcast
11:35 PM 19.4 °F 2.8 °F 19.4 °F 100% - 1.8 mi North 21.9 mph 34.5 mph N/A   Overcast
11:55 PM 19.4 °F 4.1 °F 19.4 °F 100% - 7.0 mi North 18.4 mph 29.9 mph N/A   Overcast